This is the latest recevied weather packets stored in our database for station/object 9W2CHF-4. If no packets are shown the sender has not sent any weather packets the latest 10 day(s).
| Time | Temp. | Humidity | Pressure | Rain* | Wind** | Luminosity | Snow |
|---|---|---|---|---|---|---|---|
| 1778097219 | 31.67° C | 92% | 1008 hPa | - | - | - | - |
| 1778096319 | 31.67° C | 91% | 1008.3 hPa | - | - | - | - |
| 1778095418 | 31.67° C | 91% | 1008.5 hPa | - | - | - | - |
| 1778094518 | 31.67° C | 92% | 1008.5 hPa | - | - | - | - |
| 1778093618 | 31.67° C | 93% | 1008.8 hPa | - | - | - | - |
| 1778092718 | 31.67° C | 93% | 1008.9 hPa | - | - | - | - |
| 1778091818 | 31.67° C | 91% | 1009.1 hPa | - | - | - | - |
| 1778090918 | 31.67° C | 92% | 1009.3 hPa | - | - | - | - |
| 1778090018 | 31.67° C | 92% | 1009.5 hPa | - | - | - | - |
| 1778089118 | 31.67° C | 92% | 1009.5 hPa | - | - | - | - |
| 1778088218 | 31.67° C | 91% | 1009.6 hPa | - | - | - | - |
| 1778087318 | 32.22° C | 90% | 1010.1 hPa | - | - | - | - |
| 1778086418 | 31.67° C | 93% | 1010.2 hPa | - | - | - | - |
| 1778085518 | 31.67° C | 95% | 1010.1 hPa | - | - | - | - |
| 1778084618 | 31.11° C | 97% | 1010.3 hPa | - | - | - | - |
| 1778083718 | 31.11° C | 98% | 1010.3 hPa | - | - | - | - |
| 1778082818 | 31.11° C | 99% | 1010.5 hPa | - | - | - | - |
| 1778081918 | 31.11° C | 95% | 1010.3 hPa | - | - | - | - |
| 1778081018 | 31.11° C | 96% | 1010.4 hPa | - | - | - | - |
| 1778080118 | 31.11° C | 96% | 1010.6 hPa | - | - | - | - |
| 1778079218 | 31.11° C | 96% | 1010.2 hPa | - | - | - | - |
| 1778078318 | 31.11° C | 97% | 1010.2 hPa | - | - | - | - |
| 1778077418 | 31.11° C | 97% | 1010 hPa | - | - | - | - |
| 1778076517 | 31.11° C | 98% | 1009.8 hPa | - | - | - | - |
| 1778075617 | 31.11° C | 98% | 1009.5 hPa | - | - | - | - |
* Rain since midnight (hover to see other rain measurements)
** Current wind speed in m/s (hover to see current wind gust speed)